Flag for Sweden Weather past 2 weeks in Norrköping, Sweden

Now
61 °F

Sunny.


Feels Like: 61 °F
Forecast: 48 / 66 °F
Wind: 10 mph from West

Location: Norrkoping Airport

Current Time: Aug 28, 2014 at 12:04:14 PM

Latest Report: Aug 28, 2014 at 11:20 AM


Visibility: 10 mi

Pressure: 29.89 "Hg

Humidity: 63%

Dew point: 48 °F

Location of NorrköpingLocation

Historic Weather in Norrköping — Graph

°F

Norrköping temperature yesterday

Maximum temperature yesterday: 70 °F (at 4:20 PM)
Minimum temperature yesterday: 48 °F (at 3:50 AM)
Average temperature yesterday: 58 °F

Past Weeks' High & Low Weather Summary

 TemperatureHumidityPressure
High70 °F (Aug 13, 12:50 PM)100% (Aug 13, 10:20 PM)29.89 "Hg (Aug 13, 10:20 PM)
Low43 °F (Aug 26, 2:50 AM)40% (Aug 27, 4:20 PM)29.30 "Hg (Aug 18, 1:20 PM)
Average58 °F79%29.62 "Hg
* Reported Aug 13 10:20 AM — Aug 28 10:50 AM, Norrköping, Weather by CustomWeather, © 2014

Note: Actual official high and low records may vary slightly from our data, if they occured in-between our weather recording intervals... More about our weather records

Advertising

Norrköping weather history for previous 24 hours

 ConditionsComfort  
Time TempWeatherWind HumidityBarometerVisibility
10:50 AM
Aug 28
61 °FPassing clouds.7 mph63%29.89 "HgN/A
10:20 AM59 °FPassing clouds.7 mph63%29.89 "HgN/A
9:50 AM59 °FSunny.8 mph68%29.89 "Hg10 mi
9:20 AM57 °FSunny.8 mph67%29.89 "Hg10 mi
8:50 AM57 °FSunny.8 mph67%29.89 "Hg10 mi
8:20 AM55 °FSunny.8 mph72%29.89 "Hg10 mi
7:50 AM54 °FSunny.7 mph77%29.89 "Hg10 mi
7:20 AM52 °FSunny.6 mph82%29.89 "Hg10 mi
6:50 AM48 °FSunny.5 mph87%29.86 "Hg10 mi
6:20 AM48 °FCool.5 mph82%29.86 "HgN/A
5:50 AM48 °FCool.1 mph87%29.86 "HgN/A
5:20 AM46 °FCool.3 mph87%29.86 "HgN/A
4:50 AM46 °FCool.5 mph93%29.86 "HgN/A
4:20 AM46 °FCool.3 mph87%29.86 "HgN/A
3:50 AM45 °FQuite cool.3 mph93%29.86 "HgN/A
3:20 AM46 °FCool.2 mph87%29.86 "HgN/A
2:50 AM45 °FQuite cool.No wind87%29.86 "HgN/A
2:20 AM46 °FCool.No wind87%29.86 "HgN/A
1:50 AM48 °FCool.3 mph82%29.86 "HgN/A
1:20 AM50 °FCool.5 mph82%29.86 "HgN/A
12:50 AM52 °FCool.5 mph77%29.83 "HgN/A
12:20 AM52 °FCool.6 mph77%29.83 "HgN/A
11:50 PM
Aug 27
50 °FCool.5 mph82%29.83 "HgN/A
11:20 PM50 °FCool.5 mph76%29.83 "HgN/A
10:50 PM52 °FCool.2 mph72%29.83 "HgN/A
10:20 PM54 °FPassing clouds.3 mph72%29.83 "HgN/A
9:50 PM52 °FClear.6 mph72%29.83 "Hg10 mi
9:20 PM54 °FClear.6 mph67%29.83 "Hg10 mi
8:50 PM57 °FSunny.6 mph59%29.83 "Hg10 mi
7:50 PM63 °FSunny.8 mph49%29.80 "Hg10 mi
7:20 PM66 °FSunny.10 mph43%29.80 "Hg10 mi
6:20 PM68 °FSunny.13 mph40%29.80 "Hg10 mi
5:20 PM68 °FSunny.14 mph40%29.80 "Hg10 mi
4:50 PM68 °FSunny.15 mph40%29.77 "Hg10 mi
4:20 PM70 °FSunny.14 mph40%29.77 "Hg10 mi
3:50 PM66 °FSunny.15 mph46%29.77 "Hg10 mi
3:20 PM66 °FSunny.14 mph46%29.77 "Hg10 mi
2:50 PM68 °FSunny.12 mph46%29.77 "Hg10 mi
2:20 PM68 °FPassing clouds.13 mph46%29.77 "HgN/A
1:50 PM68 °FSunny.15 mph46%29.77 "Hg10 mi
1:20 PM66 °FPassing clouds.14 mph49%29.77 "HgN/A
12:50 PM66 °FPassing clouds.14 mph49%29.77 "HgN/A
12:20 PM66 °FPassing clouds.13 mph49%29.77 "HgN/A
Weather by CustomWeather, © 2014

See weather overviewHow to use our weather pages